Zurück zum Katalog

FENGYUN 1C DEB

AktivPO
NORAD 31763·DEBRIS·🇨🇳 China

Gestartet May 10, 1999 von Taiyuan Satellite Launch Center

Loading…

Nächste Überflüge (nächste 24 Stunden)

TLE

AktuellSource: Space-Track

Epoche: Sep 14, 2026, 11:18 UTC

1 31763U 99025CFN 26257.47132106  .00000379  00000-0  24968-3 0  9992
2 31763  98.5160 332.8175 0545135  74.7446 304.0829 13.50962735947282

Verfolge FENGYUN 1C DEB in Echtzeit mit AllMySat

Download on the App Store